www.pogodaiklimat.ru

Погода и климат >> Архив погоды >> Казахстан >> Уральск


АРХИВ ПОГОДЫ в Уральске

Время (UTC), дата Ветер
(напр.,м/с)
 
Видим.   Явления Облачность Т
(С)
Тd
(С)
f
(%)
Тe
(С)
Тes
(С)
Комфортность P
(гПа)
Po
(гПа)
Тmin
(С)
Tmax
(С)
R
(мм)
R24
(мм)
S
(см)
09 9.07 ЮВ 3 10 км 8/3 600 м
[Cb calv Ac As]
+32.3 +14.6 34 +34 +39 душно 1004.4 1000.5
12 9.07 В 2
{17}
10 км {гроза, ливн. осадки} 10/10 600 м
[Cb calv]
+28.4 +23.2 73 +38 +38 очень
душно
1003.8 999.9
15 9.07 Ю 2 10 км в посл. час гроза 9/8 600 м
[Cb calv Cs]
+28.2 +22.8 73 +38 +38 очень
душно
1003.1 999.2 +32.4
18 9.07 З 2 н/о {гроза} 10/10 600 м
[Cb cap]
+25.2 +14.7 52 +28 +28 жарко 1003.8 999.6 +32.4 1
21 9.07 Ю 1 н/о 10/10 600 м
[Cb cap]
+22.2 +16.3 69 +26 +26 душно 1002.4 998.2
00 10.07 Ю 1 10 км слаб. ливневой дождь 10/10 600 м
[Cb cap]
+20.1 +17.8 87 +24 +24 комфорт 1002.9 998.7
03 10.07 Ю 1 10 км слаб. ливневой дождь 10/10 600 м
[Cb cap]
+19.7 +19.7 100 +24 +24 комфорт 1004.1 999.9
06 10.07 З 3 10 км {ливн. осадки} 3/3 1000 м
[Cu hum]
+25.0 +17.5 63 +29 +36 душно 1003.7 999.7 +19.3 3
09 10.07 ЮЗ 3 10 км 4/4 1000 м
[Cu hum]
+27.7 +12.3 38 +29 +37 жарко 1003.6 999.6
12 10.07 ЮЗ 3 10 км 6/6 1000 м
[Cu med, cong]
+27.9 +8.8 30 +28 +31 жарко 1003.4 999.4
15 10.07 З 3 10 км 4/0
[Ac lent]
+25.7 +7.5 31 +26 +26 жарко 1003.4 999.4 +28.7
18 10.07 штиль 0 н/о 9/9 600 м
[Sc]
+20.3 +9.9 51 +21 +21 комфорт 1005.0 1000.9 +28.7 0.0
21 10.07 З 1 н/о 3/0
[Ac lent]
+18.5 +8.0 50 +20 +20 тепло 1005.8 1001.7
00 11.07 штиль 0 10 км 5/0
[Ac lent Ci fib]
+13.0 +9.7 80 +13 +13 прохладно 1006.5 1002.3
03 11.07 штиль 0 10 км 6/0
[Ac lent Ci]
+15.7 +11.8 78 +16 +18 холодно 1007.4 1003.3
06 11.07 ЮЗ 1 10 км 8/0
[Ac cast Cs]
+23.8 +10.9 44 +25 +35 комфорт 1008.0 1004.0 +12.2
09 11.07 З 4 10 км 8/4 1000 м
[Cu med, cong Ac trans]
+26.6 +9.9 35 +27 +31 жарко 1007.9 1003.9
12 11.07 З 2 10 км в посл. час ливневой дождь 9/9 600 м
[Cb cap]
+24.9 +10.1 39 +26 +27 жарко 1007.8 1003.8
15 11.07 В 1 10 км 9/9 600 м
[Cb cap]
+22.1 +13.2 57 +25 +25 комфорт 1007.5 1003.5 +27.5
18 11.07 штиль 0 н/о 9/9 600 м
[Cb cap]
+19.8 +14.5 71 +22 +22 комфорт 1007.1 1003.0 +27.5 0.0
21 11.07 С 2 н/о 10/10 600 м
[Cb cap]
+19.2 +14.2 73 +21 +21 комфорт 1007.6 1003.5
00 12.07 СВ 1 10 км {ливн. осадки} 8/8 600 м
[Cb cap]
+18.3 +13.9 76 +20 +20 тепло 1006.8 1002.7
03 12.07 СВ 2 10 км 9/9 600 м
[Cb cap]
+18.2 +14.9 81 +19 +19 по сезону 1006.5 1002.4
06 12.07 В 2 10 км 8/0
[Ac trans Cc]
+23.6 +14.9 58 +26 +34 жарко 1005.4 1001.4 +17.8
09 12.07 В 2 10 км 9/8 600 м
[Cu Sc Ac trans Ci]
+27.5 +16.2 50 +31 +33 душно 1004.8 1000.8
12 12.07 В 2 10 км 6/4 600 м
[Cu Sc Ci fib]
+29.5 +16.4 45 +33 +38 душно 1002.5 998.6
15 12.07 СВ 3 10 км 9/6 600 м
[Cu Sc Ac lent Ci fib]
+27.8 +18.3 56 +33 +33 очень
душно
999.7 995.8 +30.1
18 12.07 ЮЗ 3 н/о в посл. час ливневой дождь 9/9 600 м
[Cb cap]
+23.9 +19.7 77 +29 +29 душно 1001.1 997.1 +30.1
21 12.07 СЗ 2 н/о {ливн. осадки} 8/8 600 м
[Cb cap]
+20.4 +19.6 95 +25 +25 комфорт 998.4 994.4
00 13.07 СЗ 4 10 км {ливн. осадки} 8/8 600 м
[Cb cap]
+18.0 +17.7 98 +18 +18 тепло 998.7 994.6
03 13.07 СЗ 4 10 км 6/6 1000 м
[Cu med, cong]
+18.3 +17.3 94 +19 +19 прохладно 1000.9 996.8
06 13.07 С 4 10 км 10/9 600 м
[Sc As op]
+19.4 +16.6 84 +21 +22 комфорт 1003.1 999.0 +17.3 2
09 13.07 С 3 10 км 9/9 1000 м
[Cu hum As trans]
+23.7 +17.6 69 +28 +29 душно 1004.0 1000.0
12 13.07 СЗ 3 10 км 10/9 1000 м
[Cb calv Ci fib]
+24.4 +16.6 62 +28 +29 душно 1004.0 1000.0
15 13.07 С 2 10 км 9/9 1000 м
[Sc As trans]
+22.6 +16.2 67 +27 +27 душно 1005.3 1001.3 +25.9
18 13.07 штиль 0 н/о 10/10 600 м
[Cb cap]
+20.6 +16.6 78 +24 +24 комфорт 1007.2 1003.0 +25.9
21 13.07 штиль 0 н/о {ливн. осадки} 10/10 600 м
[Cb cap]
+18.2 +17.7 97 +19 +19 по сезону 1006.7 1002.4
00 14.07 штиль 0 10 км {ливн. осадки} 3/0
[Ac trans]
+15.6 +15.2 97 +15 +15 по сезону 1007.4 1003.1
03 14.07 штиль 0 10 км 10/0
[Ci ing]
+16.5 +16.2 98 +16 +19 холодно 1008.8 1004.5
06 14.07 С 2 10 км 8/0
[Cs]
+23.6 +16.4 64 +27 +37 жарко 1007.8 1003.8 +14.6 0.7
09 14.07 В 2 10 км 9/0
[Cs]
+27.2 +16.2 51 +31 +44 душно 1007.1 1003.1
12 14.07 С 2 10 км 10/0
[As trans]
+25.3 +15.0 53 +28 +32 жарко 1007.1 1003.1
15 14.07 С 1 10 км 10/10 600 м
[Cb cap]
+22.7 +14.8 61 +26 +26 жарко 1006.2 1002.2 +27.7
18 14.07 штиль 0 н/о 10/8 1000 м
[Sc As op]
+20.9 +14.8 68 +24 +24 комфорт 1006.5 1002.4 +27.7
21 14.07 штиль 0 н/о в посл. час ливневой дождь 10/10 600 м
[Cb calv]
+18.5 +15.6 83 +19 +19 по сезону 1005.0 1000.9
00 15.07 С 2 10 км {ливн. осадки} 10/3 600 м
[Sc As op]
+17.8 +15.4 86 +18 +18 тепло 1003.7 999.6
03 15.07 С 2 10 км 10/4 600 м
[Cb cap As op]
+18.4 +16.0 86 +20 +20 по сезону 1003.9 999.6
06 15.07 С 4 10 км 9/9 600 м
[Cu Sc]
+21.4 +16.8 75 +25 +26 комфорт 1004.7 1000.7 +17.6 0.0
09 15.07 С 4 10 км в посл. час ливневой дождь 8/8 600 м
[Cb cap]
+22.3 +17.1 72 +27 +29 душно 1005.7 1001.7
12 15.07 С 7 10 км {ливн. осадки} 9/9 600 м
[Cb cap]
+21.7 +14.6 64 +25 +25 комфорт 1007.2 1003.2
15 15.07 С 1 10 км 4/4 600 м
[Cu Sc]
+22.9 +15.2 62 +27 +28 душно 1007.8 1003.8 +27.6
18 15.07 штиль 0 н/о ясно +17.6 +15.4 87 +18 +18 холодно 1009.6 1005.3 +27.6 0.0
21 15.07 штиль 0 н/о ясно +14.9 +14.2 96 +15 +15 холодно 1010.4 1006.1
00 16.07 штиль 0 10 км ясно +12.6 +12.4 99 +12 +12 холодно 1011.4 1007.0
03 16.07 штиль 0 10 км ясно +16.3 +15.6 96 +16 +20 холодно 1012.4 1008.0

 

Местоположение метеостанции Уральск (Западно-Казахстанская область, Казахстан): широта 51.25 долгота 51.28 высота над уровнем моря 37 м.

В архиве по умолчанию представлена погода в Уральске за последнюю неделю. Архивные данные за месяц целиком и за предыдущие месяцы, начиная с января 2011 года, Вы можете получить, выбрав интересующий диапазон дат из раскрывающегося списка и нажав кнопку "Ввод!".


*Определитесь, кто Вы:
робот инопланетянин человек

Внимание! Время в таблицах - всемирное. Для получения местного времени необходимо прибавить поправку, которая равна 5 ч.

Смотрите также архив погоды в соседних городах и на ближайших метеорологических станциях:

Погода в Январцево (Западно-Казахстанская область, Казахстан) (22 км)
Погода в Каменке (Западно-Казахстанская область, Казахстан) (68 км)
Погода в Анкаты (Западно-Казахстанская область, Казахстан) (69 км)
Погода в Первомайском (Оренбургская область, Россия) (77 км)
Погода в Перелюбе (Саратовская область, Россия) (95 км)
Погода в Озинках (Саратовская область, Россия) (108 км)
Погода в Чапаево (Западно-Казахстанская область, Казахстан) (117 км)
Погода в Аксае (Западно-Казахстанская область, Казахстан) (120 км)
Погода в Большая Глушица (Самарская область, Россия) (137 км)
Погода в Джамбейты (Западно-Казахстанская область, Казахстан) (144 км)

Пояснения к столбцам:

Ветер - указаны скорость ветра в м/с - средняя за 10 мин, порывы в срок и между сроками (в фигурных скобках) и направление, откуда дует ветер: С - северный, СВ - северо-восточный, В - восточный, ЮВ - юго-восточный, Ю - южный, ЮЗ - юго-западный, З - западный, СЗ - северо-западный.
Видимость - горизонтальная дальность видимости в метрах или километрах. При видимости от 1 до 10 км при отсутствии осадков обычно наблюдается дымка, при ухудшении видимости до 1 км и менее - туман. В сухую погоду видимость может ухудшаться дымом, пылью или мглою.
Явления - указаны атмосферные явления, наблюдавшиеся в срок или в последний час перед сроком; фигурными скобками обозначены явления, наблюдавшиеся между сроками (за 1-3 часа до срока); квадратными скобками обозначены град или гололедные отложения с указанием их диаметра в мм.
Облачность - указаны через наклонную черту общая и нижняя облачность в баллах и высота нижней границы облаков в метрах; квадратными скобками обозначены формы облаков: Ci - перистые, Cs - перисто-слоистые, Cc - перисто-кучевые, Ac - высококучевые, As - высокослоистые, Sc - слоисто-кучевые, Ns - слоисто-дождевые, Cu - кучевые, Cb - кучево-дождевые. Подробнее классификацию облаков см. в Атласе облаков (PDF).
T - Температура воздуха - температура, измеренная на высоте 2 м над землей.
Td - Температура точки росы - температура, при понижении до которой содержащийся в воздухе водяной пар достигнет насыщения.
f - Относительная влажность воздуха - влажноcть воздуха, измеренная на высоте 2 м над землей.
Te - Эффективная температура - температура, которую ощущает одетый по сезону человек в тени. Характеристика душности погоды. При расчете учитывается влияние влажности воздуха и скорости ветра на теплоощущения человека.
Tes - Эффективная температура на солнце - температура, которую ощущает человек, с поправкой на солнечный нагрев. Характеристика знойности погоды. Зависит от высоты солнца над горизонтом, облачности и скорости ветра. Ночью, в пасмурную погоду, а также при ветре 12 м/с и более поправка равна нулю.
P - Атмосферное давление - приведенное к уровню моря атмосферное давление.
Po - Атмосферное давление - измеренное на уровне метеостанции атмосферное давление.
Tmin - Минимальная температура - минимум температуры воздуха на высоте 2 м над землей.
Tmax - Максимальная температура - максимум температуры воздуха на высоте 2 м над землей.
R - Количество осадков - Количество выпавших осадков за период времени, мм. При наведении курсора мыши на число - период времени, за который выпало указанное количество осадков.
R24 - Количество осадков - Количество выпавших осадков за 24 часа, мм.
S - Снежный покров - Высота снежного покрова, см. При наведении курсора мыши на число - состояние снежного покрова и степень покрытия местности в баллах.